sat.trackr.live / text

‹ back to catalog

STARLINK-32561

NORAD 62026 · 2024-213U

PAYLOAD ACTIVE UNKNOWN

§ Identity

Operator
Country
US
Launch date
2024-11-18
Launch site
AFWTR
Launch vehicle
Mass (kg)
RCS (m²)

Purposes: comms

External: N2YO · Heavens-Above · Gunter

§ Orbital elements

Epoch: 2026-09-21T12:24:43.576992Z

Period
93.85 min
Inclination
53.1603°
Eccentricity
0.0001183
Mean motion
15.34392145 rev/d
Perigee alt
461.9 km
Apogee alt
463.5 km
Semi-major
6,840.9 km
B*
6.9358e-4
RAAN
336.6340°
Arg perigee
85.0294°
Mean anomaly
275.0843°
Rev number
10,316

§ Raw data

STARLINK-325611 62026U 24213U   26264.51717103  .00023124  00000+0  69358-3 0  99982 62026  53.1603 336.6340 0001183  85.0294 275.0843 15.34392145103169

JSON: /api/v1/satellites/62026 · /tle

For live sub-satellite position, see the globe view (requires WebGL).

§ Visibility from observer

Set your observer location to see the next 7 days of passes ≥ 10°. The values pass through the URL so the page stays shareable.

No JS? Fill the form by hand. The geolocation button needs JavaScript.